Powrót do katalogu

STARLINK-3800

AktywnyŁącznośćVLEO
NORAD 52379·PAYLOAD·🇺🇸 United States

Wystrzelony Apr 29, 2022 z Cape Canaveral Space Force Station

Loading…

Następne Przeloty (najbliższe 24 godziny)

TLE

ŚwieżeSource: CelesTrak SupGP

Epoka: Sep 15, 2026, 01:09 UTC

1 52379C 22045BA  26258.04840278  .00009204  00000+0  28017-3 0  2588
2 52379  53.1584  48.4821 0001985 312.3428  83.1448 15.33444211    14

Śledź STARLINK-3800 w czasie rzeczywistym z AllMySat

Download on the App Store